User: anonymous   Login
Location: Caltech
(34.1382°N, 118.1253°W)
Time: 03:39:21
(UTC-07:00)
Language:

Iridium 94 - Orbit

View from above orbital plane
View from above orbital plane
View from above satellite
View from above satellite

Ground track
Ground track

The orbit data is extracted from the following two-line orbital elements,

1 27374U 02005C   16205.46047425 -.00000077  00000-0 -34634-4 0  9996
2 27374  86.3938  33.1500 0002940  76.2334 344.1322 14.34216339768831
Epoch (UTC): 23 July 2016 11:03:04
Eccentricity: 0.0002940
inclination: 86.3938°
perigee height: 775 km
apogee height: 780 km
right ascension of ascending node: 33.1500°
argument of perigee: 76.2334°
revolutions per day: 14.34216339
mean anomaly at epoch: 344.1322°
orbit number at epoch: 76883

The dashed part of the orbit path shows where the satellite is in the earth's shadow,  

DLR